Home > Weather > Melbourne > Past weeks

Flag for Australia Weather for the Past 2 Weeks in Melbourne, Victoria, Australia

Now
64 °F

Passing clouds.


Feels Like: 64 °F
Forecast: 58 / 75 °F
Wind: 10 mph from Southwest

Location: Melbourne Airport

Current Time: Feb 10, 2016 at 10:13:53 PM

Latest Report: Feb 10, 2016 at 9:30 PM


Visibility: N/A

Pressure: 30.01 "Hg

Humidity: 73%

Dew point: 55 °F

Location of MelbourneLocation

Historic Weather in Melbourne — Graph

°F

Melbourne Temperature Yesterday

Maximum temperature yesterday: 77 °F (at 2:30 PM)
Minimum temperature yesterday: 61 °F (at 11:30 PM)
Average temperature yesterday: 68 °F

High & Low Weather Summary for the Past Weeks

 TemperatureHumidityPressure
High90 °F (Feb 2, 2:30 PM)100% (Jan 29, 2:00 AM)30.21 "Hg (Jan 29, 2:00 AM)
Low50 °F (Feb 1, 4:30 AM)22% (Feb 6, 6:00 PM)29.50 "Hg (Jan 28, 4:30 PM)
Average68 °F69%29.85 "Hg
* Reported Jan 26 9:00 PM — Feb 10 9:00 PM, Melbourne, Weather by CustomWeather, © 2016

Note: Actual official high and low records may vary slightly from our data, if they occured in-between our weather recording intervals... More about our weather records

Advertising

Melbourne Weather History for the Previous 24 Hours

 ConditionsComfort  
Time TempWeatherWind HumidityBarometerVisibility
9:00 PM
Wed, Feb 10
64 °FClear.13 mph73%30.01 "Hg10 mi
8:00 PM68 °FSunny.13 mph64%29.98 "Hg10 mi
7:30 PM70 °FSunny.12 mph60%29.98 "Hg10 mi
7:00 PM72 °FSunny.13 mph53%29.95 "Hg10 mi
6:30 PM73 °FSunny.13 mph50%29.95 "Hg10 mi
6:00 PM73 °FSunny.13 mph53%29.95 "Hg10 mi
5:30 PM75 °FSunny.14 mph47%29.95 "Hg10 mi
5:00 PM73 °FSunny.13 mph47%29.95 "Hg10 mi
4:30 PM75 °FSunny.12 mph41%29.95 "Hg10 mi
4:00 PM75 °FSunny.10 mph41%29.95 "Hg10 mi
3:00 PM75 °FSunny.13 mph47%29.95 "Hg10 mi
2:30 PM75 °FSunny.13 mph41%29.98 "Hg10 mi
2:00 PM75 °FPartly sunny.12 mph41%29.98 "HgN/A
1:00 PM73 °FPassing clouds.12 mph53%29.98 "HgN/A
12:00 PM72 °FPartly sunny.9 mph57%29.98 "HgN/A
11:30 AM72 °FPartly sunny.7 mph57%30.01 "HgN/A
11:00 AM68 °FBroken clouds.5 mph64%30.01 "HgN/A
10:30 AM68 °FPartly sunny.6 mph69%30.01 "HgN/A
10:00 AM66 °FOvercast.6 mph68%30.01 "HgN/A
9:00 AM64 °FOvercast.7 mph73%30.01 "HgN/A
8:00 AM64 °FOvercast.7 mph78%30.01 "HgN/A
7:00 AM64 °FOvercast.7 mph73%29.98 "HgN/A
6:30 AM63 °FOvercast.7 mph77%29.98 "HgN/A
6:00 AM63 °FPassing clouds.1 mph83%29.98 "HgN/A
5:30 AM64 °FPassing clouds.5 mph78%29.98 "HgN/A
5:00 AM64 °FPassing clouds.7 mph78%29.98 "HgN/A
4:30 AM64 °FPassing clouds.8 mph73%29.98 "HgN/A
4:00 AM64 °FPassing clouds.6 mph78%29.98 "HgN/A
3:00 AM63 °FPassing clouds.8 mph83%29.98 "HgN/A
2:00 AM64 °FPassing clouds.9 mph78%30.01 "HgN/A
1:30 AM64 °FPassing clouds.8 mph83%30.01 "HgN/A
1:00 AM64 °FPassing clouds.6 mph83%30.01 "HgN/A
12:30 AM61 °FPassing clouds.7 mph94%30.04 "HgN/A
12:00 AM61 °FPassing clouds.6 mph88%30.04 "HgN/A
11:30 PM
Tue, Feb 9
61 °FPassing clouds.7 mph88%30.04 "HgN/A
11:00 PM63 °FPassing clouds.7 mph88%30.04 "HgN/A
10:00 PM63 °FClear.7 mph83%30.04 "Hg10 mi
Weather by CustomWeather, © 2016

See weather overviewHow to use our weather pages